Owensboro, KY

1:47 AM CDT on May 27, 2017 (GMT -0500)
Owensboro-Daviess County

Weather History for KOWB - December, 2012

Change the Weather History Date:

Monday, December 3, 2012

  Actual Average Record
Temperature  
Mean Temperature 66 °F -  
Max Temperature 74 °F 48 °F 76 °F (1982)
Min Temperature 59 °F 32 °F 12 °F (1942)
Cooling Degree Days 2    
Growing Degree Days 16 (Base 50)    
Moisture  
Dew Point 56 °F    
Average Humidity 72    
Maximum Humidity 90    
Minimum Humidity 55    
Precipitation  
Precipitation 0.00 in - - ()
Sea Level Pressure  
Sea Level Pressure 30.10 in    
Wind  
Wind Speed 11 mph (South)    
Max Wind Speed 18 mph    
Max Gust Speed 25 mph    
Visibility 10 miles    
Events      
Averages and records for this station are not official NWS values.
T = Trace of Precipitation, MM = Missing Value Source: NWS Daily Summary

Daily Weather History Graph

Daily Weather History Graph

Search for Another Location

Airport or City:

Trip Planner

Search our weather history database for the weather conditions in past years. The results will help you decide how hot, cold, wet, or windy it might be!

Date:

Astronomy

Dec. 03, 2012 Rise Set
Actual Time 6:47 AM CST 4:29 PM CST
Civil Twilight 6:18 AM CST 4:58 PM CST
Nautical Twilight 5:45 AM CST 5:31 PM CST
Astronomical Twilight 5:14 AM CST 6:03 PM CST
Moon 9:13 PM CST (12/3) 10:13 AM CST (12/3)
Length of Visible Light 10h 40m
Length of Day
9h 42m
Waning Gibbous, 78% of the Moon is Illuminated
Dec 3
Waning Gibbous
Dec 6
Last Quarter
Dec 13
New
Dec 19
First Quarter
Dec 28
Full

Hourly Weather History & Observations

Time (CST) Temp. Dew Point Humidity Pressure Visibility Wind Dir Wind Speed Gust Speed Precip Events Conditions
12:56 AM 63.0 °F 57.9 °F 84% 30.13 in 10.0 mi South 8.1 mph - N/A   Mostly Cloudy
1:56 AM 61.9 °F 57.9 °F 87% 30.13 in 10.0 mi South 9.2 mph - N/A   Mostly Cloudy
2:56 AM 61.0 °F 57.9 °F 90% 30.14 in 10.0 mi South 6.9 mph - N/A   Mostly Cloudy
3:56 AM 61.0 °F 56.8 °F 86% 30.13 in 10.0 mi South 11.5 mph - N/A   Scattered Clouds
4:56 AM 59.0 °F 55.9 °F 90% 30.13 in 10.0 mi South 9.2 mph - N/A   Partly Cloudy
5:56 AM 59.0 °F 55.9 °F 90% 30.14 in 10.0 mi South 6.9 mph - N/A   Mostly Cloudy
6:56 AM 59.9 °F 55.9 °F 87% 30.14 in 10.0 mi South 10.4 mph - N/A   Mostly Cloudy
8:56 AM 64.9 °F 57.9 °F 78% 30.15 in 10.0 mi SSW 17.3 mph - N/A   Clear
10:56 AM 70.9 °F 59.0 °F 66% 30.13 in 10.0 mi SSW 15.0 mph - N/A   Scattered Clouds
11:56 AM 73.9 °F 59.9 °F 61% 30.09 in 10.0 mi SSW 17.3 mph 23.0 mph N/A   Scattered Clouds
12:56 PM 73.9 °F 59.9 °F 61% 30.08 in 10.0 mi SW 18.4 mph 25.3 mph N/A   Scattered Clouds
1:56 PM 74.8 °F 59.0 °F 58% 30.07 in 10.0 mi SSW 13.8 mph 20.7 mph N/A   Scattered Clouds
2:56 PM 73.9 °F 56.8 °F 55% 30.05 in 10.0 mi SSW 13.8 mph 20.7 mph N/A   Scattered Clouds
3:56 PM 70.9 °F 56.8 °F 61% 30.07 in 10.0 mi SW 11.5 mph 19.6 mph N/A   Partly Cloudy
4:56 PM 66.9 °F 54.0 °F 63% 30.07 in 10.0 mi South 10.4 mph - N/A   Partly Cloudy
5:56 PM 63.0 °F 52.9 °F 70% 30.07 in 10.0 mi South 8.1 mph - N/A   Clear
6:56 PM 63.9 °F 50.9 °F 63% 30.06 in 10.0 mi South 10.4 mph - N/A   Clear
7:56 PM 63.0 °F 50.9 °F 65% 30.07 in 10.0 mi South 12.7 mph - N/A   Partly Cloudy
8:56 PM 63.9 °F 52.0 °F 65% 30.07 in 10.0 mi South 13.8 mph - N/A   Mostly Cloudy
9:56 PM 63.0 °F 52.0 °F 67% 30.08 in 10.0 mi South 10.4 mph - N/A   Mostly Cloudy
10:56 PM 63.9 °F 52.0 °F 65% 30.08 in 10.0 mi South 12.7 mph - N/A   Mostly Cloudy
11:56 PM 63.9 °F 52.9 °F 67% 30.08 in 10.0 mi SSW 10.4 mph - N/A   Overcast